World > North America > United States > Mississippi > Big Creek  

Big Creek, MS Hourly Weather Updates

Feedback E-mail the Weather

Quick Clicks

Big Creek, MS Weather Maps

°F °C°F °C
Big Creek Weather Map
UTC Time: 6/17/2024, 23:33
Your Time:

Big Creek, MS Regional Weather

Expires:202406180000;;200530
ASUS44 KJAN 172310
RWRMS 

MISSISSIPPI HOURLY WEATHER ROUNDUP
NATIONAL WEATHER SERVICE JACKSON MS
600 PM CDT MON JUN 17 2024

NOTE: "FAIR: INDICATES FEW OR NO CLOUDS BELOW 12,000 FEET WITH NO
SIGNIFICANT WEATHER AND/OR OBSTRUCTIONS TO VISIBILITY.


MSZ003>006-009-014>017-022>024-029>033-037>039-180000-
NORTHEAST MISSISSIPPI
  
CITY           SKY/WX    TMP DP  RH WIND       PRES   REMARKS
ABERDEEN       CLOUDY    79  79 100 W5G13     30.00R                  
COLUMBUS AFB   PTSUNNY   79  71  77 E14       29.97R THUNDER          
CORINTH        PTSUNNY   86  73  66 E10       29.99S HX  93           
GOLDN TRIANGLE PTSUNNY   87  73  62 SE8       29.99S HX  94           
IUKA           PTSUNNY   82  79  89 CALM      30.01S HX  93           
LOUISVILLE     PTSUNNY   86  75  70 SE5       30.02F HX  95           
STARKVILLE     PTSUNNY   79  72  78 NE14      29.97S                  
TUPELO         CLOUDY    87  73  62 S5        29.99R HX  94           
$$


SKY/WX - Weather  TMP - Temperature  DP - Dew Point  RH - Humidity
WIND - Wind Direction/Speed PRES - Barometric Pressure VSB - Visibility
WCI - Wind Chill Index E13G22 Wind - East Wind 13 mph/Gusts of 22 mph

Trending Headlines

Trending Entertainment Headlines

Big Creek Radar Loop

Use the map search tool if you want to place a location marker on the radar map...

Big Creek Quick Facts

National Two Day Weather Forecast


E-mail the Big Creek Weather Forecast

Voice your opinion or tell us about page issues...